This is the latest recevied weather packets stored in our database for station/object N2XGL-1. If no packets are shown the sender has not sent any weather packets the latest 10 day(s).
| Time | Temp. | Humidity | Pressure | Rain* | Wind** | Luminosity | Snow |
|---|---|---|---|---|---|---|---|
| 1778104874 | 5° C | 74% | 1020.2 hPa | 0.25 mm | - | - | - |
| 1778104298 | 5° C | 74% | 1020.4 hPa | 0.51 mm | - | - | - |
| 1778103905 | 5° C | 75% | 1020.5 hPa | 1.02 mm | - | - | - |
| 1778103749 | 5° C | 75% | 1020.5 hPa | 1.02 mm | - | - | - |
| 1778102705 | 5° C | 76% | 1020.7 hPa | 1.78 mm | - | - | - |
| 1778102634 | 5° C | 76% | 1020.7 hPa | 1.78 mm | - | - | - |
| 1778102060 | 5° C | 74% | 1020.7 hPa | 1.78 mm | - | - | - |
| 1778100983 | 5° C | 73% | 1021 hPa | 2.03 mm | - | - | - |
| 1778100949 | 5° C | 73% | 1021 hPa | 2.03 mm | - | - | - |
| 1778100431 | 5° C | 76% | 1021.2 hPa | 2.03 mm | - | - | - |
| 1778099834 | 5° C | 76% | 1021.3 hPa | 1.78 mm | - | - | - |
| 1778099261 | 4.44° C | 79% | 1021.4 hPa | 1.78 mm | - | - | - |
| 1778098701 | 3.89° C | 78% | 1021.6 hPa | 2.03 mm | - | - | - |
| 1778098144 | 3.89° C | 78% | 1021.7 hPa | 2.29 mm | - | - | - |
| 1778097619 | 3.33° C | 74% | 1021.8 hPa | 2.54 mm | - | - | - |
| 1778097557 | 3.33° C | 73% | 1021.7 hPa | 3.05 mm | - | - | - |
| 1778097078 | 3.33° C | 73% | 1021.7 hPa | 3.05 mm | - | - | - |
| 1778096584 | 3.33° C | 71% | 1021.8 hPa | 3.56 mm | - | - | - |
| 1778096073 | 3.33° C | 73% | 1021.9 hPa | 4.32 mm | - | - | - |
| 1778095494 | 3.89° C | 80% | 1021.9 hPa | 5.33 mm | - | - | - |
| 1778094999 | 3.33° C | 76% | 1022 hPa | 5.59 mm | - | - | - |
| 1778094457 | 3.33° C | 73% | 1022 hPa | 6.6 mm | - | - | - |
| 1778093881 | 3.33° C | 71% | 1022.1 hPa | 7.62 mm | - | - | - |
| 1778093370 | 3.33° C | 74% | 1022.2 hPa | 7.62 mm | - | - | - |
| 1778092814 | 3.33° C | 72% | 1022.2 hPa | 7.11 mm | - | - | - |
* Rain latest hour (hover to see other rain measurements)
** Current wind speed in m/s (hover to see current wind gust speed)